Zurück zum Katalog

SL-12 DEB

AktivHEO
NORAD 29328·DEBRIS·🇷🇺 Russia

Gestartet May 31, 1989 von Baikonur Cosmodrome

Loading…

Nächste Überflüge (nächste 24 Stunden)

TLE

AktuellSource: Space-Track

Epoche: Sep 13, 2026, 22:24 UTC

1 29328U 89039AK  26256.93386927  .00000277  00000-0  52306-2 0  9995
2 29328  65.2846 165.3258 5450165  91.7543 356.6117  4.29098963314762

Verfolge SL-12 DEB in Echtzeit mit AllMySat

Download on the App Store